Total_Precipitation_Accumulation
2.71 2.86 2.74 2.65 2.66 2.58 3.00 3.42 3.65 3.40 3.12 2.94 2.67 2.56 2.69 2.85 2.97 2.63 2.47 2.60 2.47 2.29 2.06 1.91 1.90 2.03 2.24 2.46 2.59 2.74 2.96 3.36 3.80 4.00 4.22 4.76 5.30 5.68
2.79 2.81 2.68 2.60 2.74 2.66 2.79 3.13 3.42 3.62 3.31 2.75 2.56 2.40 2.41 2.23 2.44 2.17 2.25 2.49 2.32 2.16 1.99 1.89 1.84 1.86 1.92 2.03 2.12 2.15 2.22 2.36 2.63 2.93 2.99 3.25 3.73 4.18
2.85 2.86 2.92 3.03 2.98 2.87 2.96 3.05 3.27 3.57 3.44 2.84 2.69 2.65 2.51 2.24 2.21 2.11 2.08 2.21 2.25 2.38 2.18 1.97 1.78 1.68 1.71 1.78 1.84 1.92 2.04 2.15 2.24 2.44 2.57 2.63 2.76 2.98
2.93 3.22 3.14 3.22 3.15 2.97 3.09 3.02 3.16 3.57 3.43 3.03 2.95 2.96 2.89 2.62 2.47 2.26 2.02 2.03 2.19 2.51 2.27 2.08 1.87 1.75 1.74 1.77 1.80 1.79 1.80 1.91 2.00 2.12 2.17 2.22 2.36 2.53
2.91 3.00 3.06 3.33 3.19 3.10 3.00 2.96 3.09 3.33 3.50 3.16 3.02 3.24 3.08 2.77 2.64 2.33 2.12 2.23 2.01 2.18 2.20 2.19 2.08 1.91 1.81 1.73 1.79 1.81 1.76 1.75 1.80 1.93 2.06 2.20 2.28 2.28
2.84 2.78 2.88 3.13 3.22 3.24 3.00 3.02 3.20 3.33 3.41 3.29 3.12 3.24 3.26 3.15 2.99 2.70 2.59 2.44 2.25 2.09 2.20 2.18 2.18 2.02 1.84 1.68 1.72 1.75 1.75 1.78 1.75 1.73 1.75 1.83 1.92 1.97
2.61 2.52 2.52 2.79 3.04 3.12 2.83 2.91 3.13 3.15 3.14 3.15 3.12 3.20 3.25 3.40 3.22 2.90 2.67 2.54 2.29 2.10 2.16 2.05 2.09 1.98 1.88 1.84 1.82 1.73 1.56 1.55 1.57 1.57 1.58 1.67 1.71 1.73
2.64 2.54 2.42 2.37 2.39 2.58 2.70 2.85 3.01 3.00 3.00 3.17 3.30 3.35 3.35 3.43 3.44 3.21 2.90 2.67 2.42 2.16 2.32 2.31 2.26 2.26 2.00 1.76 1.79 1.72 1.56 1.49 1.46 1.39 1.39 1.47 1.55 1.60
2.56 2.53 2.20 1.98 2.12 2.06 2.30 2.47 2.54 2.64 2.75 2.99 3.14 3.18 3.31 3.47 3.62 3.33 3.13 2.91 2.61 2.36 2.45 2.28 2.21 2.26 2.16 1.99 2.04 1.80 1.69 1.58 1.51 1.49 1.47 1.41 1.38 1.43
2.28 2.33 2.26 2.12 2.09 2.23 2.24 2.13 2.03 2.09 2.31 2.37 2.49 2.76 3.00 3.25 3.50 3.41 3.36 3.04 2.67 2.43 2.42 2.25 2.08 2.10 2.18 2.20 2.19 1.96 1.76 1.63 1.48 1.43 1.47 1.40 1.34 1.38
2.11 2.13 2.15 2.06 2.27 2.28 2.17 2.09 2.05 2.03 2.13 2.26 2.27 2.42 2.69 2.85 3.04 3.19 3.18 3.05 2.73 2.51 2.51 2.47 2.22 2.18 2.21 2.15 2.02 2.02 1.83 1.67 1.54 1.46 1.42 1.40 1.43 1.43
2.12 2.12 2.16 2.08 2.16 2.06 1.95 2.02 1.98 1.98 2.10 2.11 2.11 2.13 2.20 2.53 2.92 2.76 2.82 2.92 2.67 2.36 2.16 2.30 2.27 2.37 2.34 2.04 1.84 1.75 1.71 1.73 1.71 1.58 1.50 1.47 1.57 1.44
2.28 2.20 2.20 2.21 1.91 1.84 1.80 1.80 1.85 1.94 2.07 1.95 1.84 1.86 1.98 2.16 2.41 2.50 2.50 2.51 2.47 2.19 1.97 2.07 2.04 2.15 2.15 1.93 1.81 1.72 1.59 1.54 1.51 1.53 1.59 1.63 1.62 1.49
2.32 2.36 2.36 2.25 1.87 1.71 1.58 1.55 1.67 1.68 1.71 1.79 1.76 1.74 1.80 1.92 2.10 2.26 2.35 2.43 2.36 2.20 2.18 2.26 2.10 2.03 2.02 1.84 1.69 1.65 1.67 1.63 1.59 1.53 1.52 1.81 1.82 1.77
2.16 2.27 2.12 2.00 1.79 1.55 1.50 1.52 1.56 1.50 1.58 1.72 1.76 1.72 1.71 1.80 2.08 2.43 2.61 2.72 2.64 2.29 2.18 2.25 2.26 2.22 2.24 2.00 1.74 1.61 1.62 1.61 1.58 1.64 1.61 1.68 1.74 1.75
2.00 2.07 2.04 1.98 1.89 1.73 1.64 1.55 1.47 1.52 1.61 1.66 1.78 1.91 2.04 2.13 2.24 2.37 2.55 2.64 2.66 2.37 2.15 2.16 2.17 2.30 2.22 1.98 1.92 1.75 1.56 1.53 1.54 1.65 1.72 1.71 1.81 1.86
1.96 1.96 1.98 2.08 2.10 2.04 1.95 1.84 1.79 1.80 1.80 1.78 1.90 2.03 2.05 2.08 2.11 2.26 2.43 2.49 2.38 2.15 1.99 1.95 2.09 2.19 2.22 2.20 2.06 1.75 1.57 1.47 1.48 1.69 1.93 1.93 1.84 1.79
1.93 1.92 2.07 2.13 2.17 2.17 2.16 2.00 1.88 1.77 1.74 1.82 1.87 1.94 2.01 2.04 2.07 2.21 2.38 2.39 2.23 2.08 2.05 1.91 1.97 2.21 2.30 2.18 1.91 1.76 1.69 1.59 1.55 1.73 1.90 1.95 1.89 1.74
1.67 1.77 1.97 2.02 2.04 2.06 2.06 1.95 1.88 1.83 1.84 1.93 2.02 2.07 2.11 2.10 2.10 2.15 2.28 2.34 2.26 2.11 2.03 2.03 2.01 2.14 2.18 1.87 1.53 1.50 1.70 1.76 1.82 1.88 1.96 1.93 1.84 1.67
1.39 1.53 1.70 1.85 1.96 2.06 2.12 2.11 2.03 1.99 1.97 1.94 2.03 2.11 2.21 2.27 2.23 2.18 2.25 2.34 2.32 2.23 2.16 2.11 2.09 2.06 2.07 1.95 1.71 1.54 1.60 1.82 1.97 1.98 1.92 1.98 1.93 1.87
1.33 1.36 1.46 1.69 1.93 2.08 2.18 2.26 2.26 2.19 2.04 2.01 2.06 2.14 2.21 2.32 2.30 2.22 2.25 2.41 2.40 2.29 2.09 1.88 1.89 2.16 2.28 2.40 2.17 1.67 1.52 1.64 1.80 1.93 1.96 2.02 1.96 1.91
1.33 1.37 1.46 1.61 1.81 2.03 2.12 2.10 2.13 2.08 2.04 2.03 2.02 2.10 2.19 2.26 2.26 2.24 2.27 2.37 2.33 2.22 2.06 1.98 2.14 2.40 2.47 2.41 2.09 1.79 1.65 1.62 1.73 1.86 1.89 1.87 1.82 1.75
1.51 1.45 1.45 1.51 1.66 1.82 1.90 1.95 1.99 1.97 1.94 1.98 2.00 2.02 2.10 2.20 2.29 2.30 2.25 2.30 2.33 2.34 2.41 2.38 2.35 2.37 2.35 2.29 2.18 2.00 1.82 1.77 1.83 1.88 1.75 1.66 1.55 1.44